User: anonymous   Login
Location: Observatoire de Paris
(48.8363°N, 2.3365°E)
Time: 12:54:02
(UTC+01:00)
Language:

ITUPSAT 1 - Orbit

View from above orbital plane
View from above orbital plane
View from above satellite
View from above satellite

Ground track
Ground track

The orbit data is extracted from the following two-line orbital elements,

1 35935U 09051E   21264.07056126  .00000121  00000-0  38689-4 0  9994
2 35935  98.6020 108.9733 0008270 160.9955 199.1552 14.55760615636710
Epoch (UTC): 21 September 2021 01:41:36
Eccentricity: 0.0008270
inclination: 98.6020°
perigee height: 701 km
apogee height: 713 km
right ascension of ascending node: 108.9733°
argument of perigee: 160.9955°
revolutions per day: 14.55760615
mean anomaly at epoch: 199.1552°
orbit number at epoch: 63671

The dashed part of the orbit path shows where the satellite is in the earth's shadow,  

DLR